Weather History for Crestview, FL

Change the Weather History Date:

Monday, February 18, 2013

  Actual Average Record
Temperature  
Mean Temperature 46 °F -  
Max Temperature 61 °F - - ()
Min Temperature 30 °F - - ()
Degree Days  
Heating Degree Days 20    
Moisture  
Dew Point 37 °F    
Average Humidity 60    
Maximum Humidity 87    
Minimum Humidity 41    
Precipitation  
Precipitation 0.00 in - - ()
Sea Level Pressure  
Sea Level Pressure 30.25 in    
Wind  
Wind Speed 8 mph (SE)    
Max Wind Speed 18 mph    
Max Gust Speed 26 mph    
Visibility 10 miles    
Events      
T = Trace of Precipitation, MM = Missing Value Source: NWS Daily Summary

Daily Weather History Graph

Daily Weather History Graph

Search for Another Location

Airport:

Trip Planner

Search our weather history database for the weather conditions in past years. The results will help you decide how hot, cold, wet, or windy it might be!

Date:

Astronomy

Feb. 18, 2013 Rise Set
Actual Time 6:23 AM CST 5:36 PM CST
Civil Twilight 5:59 AM CST 6:01 PM CST
Nautical Twilight 5:30 AM CST 6:29 PM CST
Astronomical Twilight 5:03 AM CST 6:57 PM CST
Moon 11:33 AM CST (2/18) 12:52 AM CST (2/18)
Length of Visible Light 12h 02m
Length of Day
11h 13m
First Quarter, 58% of the Moon is Illuminated
Feb 18
First Quarter
Feb 25
Full
Mar 4
Last Quarter
Mar 11
New
Mar 19
First Quarter

Hourly Weather History & Observations

Time (CST) Temp. Windchill Dew Point Humidity Pressure Visibility Wind Dir Wind Speed Gust Speed Precip Events Conditions
12:58 AM 30.4 °F - 26.8 °F 86% 30.31 in 10.0 mi Calm Calm - N/A   Clear
1:58 AM 30.7 °F 27.3 °F 27.0 °F 86% 30.29 in 10.0 mi East 3.5 mph - N/A   Clear
2:58 AM 33.3 °F - 27.0 °F 78% 30.28 in 10.0 mi East 2.3 mph - N/A   Clear
3:58 AM 37.2 °F - 27.7 °F 68% 30.28 in 10.0 mi ESE 2.3 mph - N/A   Clear
4:59 AM 32.0 °F - 28.4 °F 87% 30.29 in 10.0 mi East 1.2 mph - N/A   Clear
5:58 AM 32.9 °F - 27.7 °F 81% 30.30 in 10.0 mi East 2.3 mph - N/A   Clear
6:59 AM 37.4 °F - 32.0 °F 81% 30.30 in 10.0 mi ENE 2.3 mph - N/A   Clear
7:58 AM 48.4 °F - 35.8 °F 62% 30.32 in 10.0 mi ESE 9.2 mph - N/A   Clear
8:58 AM 54.5 °F - 36.5 °F 51% 30.33 in 10.0 mi SE 12.7 mph - N/A   Clear
9:58 AM 58.6 °F - 37.8 °F 46% 30.33 in 10.0 mi SE 15.0 mph 19.6 mph N/A   Clear
10:58 AM 60.4 °F - 36.7 °F 41% 30.32 in 10.0 mi SSE 15.0 mph 23.0 mph N/A   Clear
11:58 AM 60.4 °F - 38.8 °F 45% 30.30 in 10.0 mi South 15.0 mph 20.7 mph N/A   Clear
12:20 PM 60.8 °F - 39.2 °F 45% 30.29 in 10.0 mi South 18.4 mph - N/A   Clear
12:58 PM 61.0 °F - 39.9 °F 46% 30.28 in 10.0 mi South 17.3 mph 25.3 mph N/A   Partly Cloudy
1:02 PM 60.8 °F - 39.2 °F 45% 30.28 in 10.0 mi SE 15.0 mph 25.3 mph N/A   Partly Cloudy
1:27 PM 60.8 °F - 39.2 °F 45% 30.27 in 10.0 mi SE 15.0 mph 23.0 mph N/A   Partly Cloudy
1:32 PM 60.8 °F - 39.2 °F 45% 30.27 in 10.0 mi South 15.0 mph 23.0 mph N/A   Partly Cloudy
1:33 PM 60.8 °F - 39.2 °F 45% 30.27 in 10.0 mi South 15.0 mph 23.0 mph N/A   Scattered Clouds
1:48 PM 60.8 °F - 39.2 °F 45% 30.27 in 10.0 mi SE 13.8 mph 26.5 mph N/A   Partly Cloudy
1:53 PM 60.8 °F - 39.2 °F 45% 30.27 in 10.0 mi South 16.1 mph 20.7 mph N/A   Scattered Clouds
2:55 PM 59.7 °F - 38.7 °F 46% 30.26 in 10.0 mi SSE 16.1 mph 21.9 mph N/A   Scattered Clouds
3:55 PM 58.3 °F - 40.1 °F 51% 30.22 in 10.0 mi SE 11.5 mph 20.7 mph N/A   Scattered Clouds
4:55 PM 55.8 °F - 40.6 °F 57% 30.20 in 10.0 mi SE 12.7 mph 19.6 mph N/A   Mostly Cloudy
5:55 PM 53.8 °F - 40.6 °F 61% 30.20 in 10.0 mi SE 11.5 mph 18.4 mph N/A   Mostly Cloudy
6:58 PM 52.3 °F - 40.6 °F 64% 30.19 in 10.0 mi ESE 8.1 mph - N/A   Scattered Clouds
7:58 PM 51.4 °F - 40.3 °F 66% 30.18 in 10.0 mi ESE 8.1 mph - N/A   Mostly Cloudy
8:58 PM 52.0 °F - 41.4 °F 67% 30.16 in 10.0 mi SE 10.4 mph - N/A   Mostly Cloudy
9:58 PM 51.1 °F - 41.0 °F 68% 30.15 in 10.0 mi SE 8.1 mph - N/A   Mostly Cloudy
10:58 PM 50.4 °F - 41.9 °F 73% 30.11 in 10.0 mi SE 5.8 mph - N/A   Mostly Cloudy
11:58 PM 57.4 °F - 48.7 °F 73% 30.09 in 10.0 mi SSE 15.0 mph - N/A   Partly Cloudy